START_TIME,STEP,MOV.,AL01,t_acc.,AL02,t_acc.,E37,t_acc.,H21,t_acc.
1979-07-03 21:00:35.140 ,0,0,0.,24.0,0.,24.0,1.,24.0,0.,24.0
1979-07-03 21:00:59.140 ,0,1,1.,24.0,0.,24.0,0.,24.0,0.,24.0
1979-07-03 21:01:23.140 ,0,0,0.,24.0,0.,24.0,2.,24.0,0.,24.0
1979-07-03 21:01:47.140 ,1,1,1.,24.0,1.,24.0,1.,24.0,0.,24.0
1979-07-03 21:02:11.140 ,1,0,0.,24.0,0.,24.0,0.,24.0,0.,24.0
1979-07-03 21:03:23.140 ,0,0,0.,24.0,0.,24.0,0.,24.0,0.,24.0
1979-07-03 21:03:47.140 ,0,0,0.,24.0,0.,24.0,1.,24.0,0.,24.0
1979-07-03 21:04:11.140 ,4,1,0.,24.0,0.,24.0,1.,24.0,0.,24.0
1979-07-03 21:04:35.140 ,4,0,0.,24.0,0.,24.0,1.,24.0,0.,24.0
1979-07-03 21:04:59.140 ,5,1,0.,24.0,0.,24.0,1.,24.0,0.,24.0
1979-07-03 21:05:23.140 ,5,0,2.,24.0,1.,24.0,3.,24.0,0.,24.0
1979-07-03 21:05:47.140 ,6,1,0.,24.0,0.,24.0,0.,24.0,0.,24.0
1979-07-03 21:06:11.140 ,6,0,0.,24.0,0.,24.0,1.,24.0,0.,24.0
1979-07-03 21:06:35.140 ,7,0,10.,24.0,1.,24.0,1.,24.0,0.,24.0
1979-07-03 21:06:59.140 ,7,0,34.,24.0,0.,24.0,2.,24.0,0.,24.0
1979-07-03 21:07:23.140 ,5,1,10.,24.0,0.,24.0,0.,24.0,0.,24.0
1979-07-03 21:07:47.140 ,1,1,0.,24.0,0.,24.0,3.,24.0,0.,24.0
1979-07-03 21:08:11.140 ,2,1,0.,24.0,0.,24.0,0.,24.0,0.,24.0
1979-07-03 21:08:35.140 ,6,1,1.,24.0,1.,24.0,3.,24.0,0.,24.0
1979-07-03 21:08:59.140 ,5,1,15.,24.0,0.,24.0,1.,24.0,0.,24.0
1979-07-03 21:09:23.140 ,1,1,1.,24.0,0.,24.0,1.,24.0,0.,24.0
1979-07-03 21:10:35.140 ,0,0,20.,24.0,0.,24.0,0.,24.0,0.,24.0
1979-07-03 21:10:59.140 ,0,0,0.,24.0,1.,24.0,0.,24.0,0.,24.0
1979-07-03 21:11:23.140 ,2,1,1.,24.0,0.,24.0,0.,24.0,0.,24.0
1979-07-03 21:11:47.140 ,6,1,0.,24.0,0.,24.0,1.,24.0,0.,24.0
1979-07-03 21:12:11.140 ,5,1,13.,24.0,0.,24.0,0.,24.0,0.,24.0
1979-07-03 21:12:35.140 ,1,1,0.,24.0,0.,24.0,0.,24.0,0.,24.0
1979-07-03 21:12:59.140 ,2,1,0.,24.0,0.,24.0,1.,24.0,0.,24.0
1979-07-03 21:13:23.140 ,6,1,0.,24.0,0.,24.0,0.,24.0,0.,24.0
1979-07-03 21:13:47.140 ,5,1,7.,24.0,0.,24.0,1.,24.0,0.,24.0
1979-07-03 21:14:11.140 ,1,1,0.,24.0,0.,24.0,0.,24.0,0.,24.0
1979-07-03 21:14:35.140 ,2,1,1.,24.0,0.,24.0,1.,24.0,0.,24.0
1979-07-03 21:14:59.140 ,6,1,0.,24.0,0.,24.0,0.,24.0,0.,24.0
1979-07-03 21:15:23.140 ,5,1,14.,24.0,0.,24.0,1.,24.0,0.,24.0
1979-07-03 21:15:47.140 ,1,1,0.,24.0,0.,24.0,2.,24.0,0.,24.0
1979-07-03 21:16:11.140 ,2,1,1.,24.0,0.,24.0,2.,24.0,0.,24.0
1979-07-03 21:16:35.140 ,6,1,0.,24.0,0.,24.0,1.,24.0,0.,24.0
1979-07-03 21:16:59.140 ,5,1,18.,24.0,0.,24.0,0.,24.0,0.,24.0
1979-07-03 21:17:23.140 ,0,0,,0,,0,,0,,0
1979-07-03 21:20:09.940 ,0,0,,0,,0,,0,,0
1979-07-03 21:20:11.140 ,0,0,,0,,0,,0,,0
1979-07-03 21:20:35.140 ,0,0,,0,,0,,0,,0
1979-07-03 21:21:47.140 ,0,0,,0,,0,,0,,0
1979-07-03 21:22:11.140 ,0,0,0.,24.0,0.,24.0,1.,24.0,0.,24.0
1979-07-03 21:22:57.340 ,0,0,,0,,0,,0,,0
1979-07-03 21:22:59.140 ,0,0,,0,,0,,0,,0
1979-07-03 21:23:24.940 ,0,0,,0,,0,,0,,0
1979-07-03 21:23:47.140 ,0,0,0.,24.0,0.,24.0,0.,24.0,0.,24.0
1979-07-03 21:24:11.140 ,1,1,0.,24.0,0.,24.0,0.,24.0,0.,24.0
1979-07-03 21:24:35.140 ,1,0,1.,24.0,0.,24.0,1.,24.0,0.,24.0
1979-07-03 21:24:59.140 ,2,1,0.,24.0,0.,24.0,3.,24.0,0.,24.0
1979-07-03 21:25:23.140 ,2,0,0.,24.0,0.,24.0,0.,24.0,0.,24.0
1979-07-03 21:25:47.140 ,3,1,2.,24.0,0.,24.0,1.,24.0,0.,24.0
1979-07-03 21:26:11.140 ,3,0,1.,24.0,0.,24.0,0.,24.0,0.,24.0
1979-07-03 21:26:35.140 ,4,1,0.,24.0,0.,24.0,0.,24.0,0.,24.0
1979-07-03 21:26:59.140 ,4,0,0.,24.0,0.,24.0,1.,24.0,0.,24.0
1979-07-03 21:27:23.140 ,5,1,1.,24.0,0.,24.0,0.,24.0,0.,24.0
1979-07-03 21:27:47.140 ,5,0,1.,24.0,0.,24.0,2.,24.0,0.,24.0
1979-07-03 21:28:11.140 ,6,1,1.,24.0,0.,24.0,0.,24.0,0.,24.0
1979-07-03 21:28:35.140 ,6,0,0.,24.0,0.,24.0,3.,24.0,0.,24.0
1979-07-03 21:28:59.140 ,7,1,6.,24.0,0.,24.0,1.,24.0,0.,24.0
1979-07-03 21:29:23.140 ,7,0,34.,24.0,0.,24.0,1.,24.0,0.,24.0
1979-07-03 21:29:47.140 ,7,1,33.,24.0,0.,24.0,1.,24.0,0.,24.0
1979-07-03 21:30:11.140 ,7,0,24.,24.0,0.,24.0,1.,24.0,0.,24.0
1979-07-03 21:30:35.140 ,6,1,23.,24.0,0.,24.0,2.,24.0,0.,24.0
1979-07-03 21:30:59.140 ,6,0,0.,24.0,0.,24.0,1.,24.0,0.,24.0
1979-07-03 21:31:23.140 ,5,1,1.,24.0,0.,24.0,2.,24.0,0.,24.0
1979-07-03 21:31:47.140 ,5,0,1.,24.0,0.,24.0,0.,24.0,0.,24.0
1979-07-03 21:32:11.140 ,4,1,1.,24.0,0.,24.0,3.,24.0,0.,24.0
1979-07-03 21:32:35.140 ,4,0,0.,24.0,0.,24.0,0.,24.0,0.,24.0
1979-07-03 21:32:59.140 ,3,1,0.,24.0,0.,24.0,3.,24.0,0.,24.0
1979-07-03 21:33:23.140 ,3,0,0.,24.0,0.,24.0,2.,24.0,0.,24.0
1979-07-03 21:33:47.140 ,2,1,0.,24.0,0.,24.0,0.,24.0,0.,24.0
1979-07-03 21:34:11.140 ,2,0,0.,24.0,0.,24.0,1.,24.0,0.,24.0
1979-07-03 21:34:35.140 ,1,1,0.,24.0,0.,24.0,0.,24.0,0.,24.0
1979-07-03 21:34:59.140 ,1,0,0.,24.0,0.,24.0,0.,24.0,0.,24.0
1979-07-03 21:35:23.140 ,0,1,0.,24.0,0.,24.0,2.,24.0,0.,24.0
1979-07-03 21:35:47.140 ,0,0,0.,24.0,0.,24.0,0.,24.0,0.,24.0
1979-07-03 21:36:11.140 ,0,1,1.,24.0,0.,24.0,2.,24.0,0.,24.0
1979-07-03 21:36:35.140 ,0,0,0.,24.0,0.,24.0,2.,24.0,0.,24.0
1979-07-03 21:36:59.140 ,1,1,0.,24.0,0.,24.0,1.,24.0,0.,24.0
1979-07-03 21:37:23.140 ,1,0,1.,24.0,0.,24.0,0.,24.0,0.,24.0
1979-07-03 21:37:47.140 ,2,1,0.,24.0,0.,24.0,3.,24.0,0.,24.0
1979-07-03 21:38:11.140 ,2,0,0.,24.0,0.,24.0,0.,24.0,0.,24.0
1979-07-03 21:38:35.140 ,3,1,0.,24.0,0.,24.0,1.,24.0,0.,24.0
1979-07-03 21:38:59.140 ,3,0,0.,24.0,0.,24.0,2.,24.0,0.,24.0
1979-07-03 21:38:59.140 ,3,0,0.,24.0,0.,24.0,2.,24.0,0.,24.0
1979-07-03 21:39:23.140 ,4,1,0.,24.0,1.,24.0,0.,24.0,0.,24.0
1979-07-03 21:39:47.140 ,4,0,0.,24.0,0.,24.0,3.,24.0,0.,24.0
1979-07-03 21:40:11.140 ,5,1,1.,24.0,0.,24.0,3.,24.0,0.,24.0
1979-07-03 21:40:35.140 ,5,0,1.,24.0,0.,24.0,2.,24.0,0.,24.0
1979-07-03 21:40:59.140 ,6,1,0.,24.0,0.,24.0,1.,24.0,0.,24.0
1979-07-03 21:41:23.140 ,6,0,0.,24.0,0.,24.0,2.,24.0,0.,24.0
1979-07-03 21:41:47.140 ,7,1,7.,24.0,0.,24.0,1.,24.0,0.,24.0
1979-07-03 21:42:11.140 ,7,0,36.,24.0,0.,24.0,1.,24.0,0.,24.0
1979-07-03 21:42:35.140 ,7,1,30.,24.0,0.,24.0,1.,24.0,0.,24.0
1979-07-03 21:42:59.140 ,0,0,25.,24.0,0.,24.0,3.,24.0,0.,24.0
1979-07-03 21:43:29.140 ,0,0,21.,24.0,0.,24.0,0.,24.0,0.,24.0
1979-07-03 21:43:47.140 ,0,0,0.,24.0,0.,24.0,2.,24.0,0.,24.0
1979-07-03 21:44:11.140 ,5,1,0.,24.0,0.,24.0,0.,24.0,0.,24.0
1979-07-03 21:44:35.140 ,5,0,0.,24.0,1.,24.0,0.,24.0,0.,24.0
1979-07-03 21:44:59.140 ,4,1,1.,24.0,0.,24.0,2.,24.0,0.,24.0
1979-07-03 21:45:23.140 ,4,0,3.,24.0,0.,24.0,0.,24.0,0.,24.0
1979-07-03 21:45:47.140 ,3,1,0.,24.0,0.,24.0,1.,24.0,0.,24.0
1979-07-03 21:46:11.140 ,3,0,0.,24.0,0.,24.0,3.,24.0,0.,24.0
1979-07-03 21:46:35.140 ,2,1,0.,24.0,0.,24.0,3.,24.0,0.,24.0
1979-07-03 21:46:59.140 ,2,0,0.,24.0,0.,24.0,1.,24.0,0.,24.0
1979-07-03 21:47:23.140 ,1,1,0.,24.0,0.,24.0,3.,24.0,0.,24.0
1979-07-03 21:47:47.140 ,1,0,0.,24.0,0.,24.0,2.,24.0,0.,24.0
1979-07-03 21:48:11.140 ,0,1,0.,24.0,0.,24.0,0.,24.0,0.,24.0
1979-07-03 21:48:35.140 ,0,0,0.,24.0,0.,24.0,0.,24.0,0.,24.0
1979-07-03 21:48:59.140 ,0,1,0.,24.0,0.,24.0,1.,24.0,0.,24.0
1979-07-03 21:49:23.140 ,0,0,0.,24.0,0.,24.0,1.,24.0,0.,24.0
1979-07-03 21:49:47.140 ,1,1,0.,24.0,0.,24.0,1.,24.0,0.,24.0
1979-07-03 21:50:11.140 ,1,0,0.,24.0,0.,24.0,3.,24.0,0.,24.0
1979-07-03 21:50:35.140 ,2,1,1.,24.0,0.,24.0,0.,24.0,0.,24.0
1979-07-03 21:50:59.140 ,2,0,1.,24.0,0.,24.0,1.,24.0,0.,24.0
1979-07-03 21:51:23.140 ,3,1,1.,24.0,0.,24.0,0.,24.0,0.,24.0
1979-07-03 21:51:47.140 ,3,0,1.,24.0,0.,24.0,1.,24.0,0.,24.0
1979-07-03 21:52:11.140 ,4,1,0.,24.0,0.,24.0,2.,24.0,0.,24.0
1979-07-03 21:52:35.140 ,4,0,0.,24.0,0.,24.0,0.,24.0,0.,24.0
1979-07-03 21:52:59.140 ,5,1,0.,24.0,0.,24.0,4.,24.0,0.,24.0
1979-07-03 21:53:23.140 ,5,0,0.,24.0,0.,24.0,4.,24.0,0.,24.0
1979-07-03 21:53:47.140 ,6,1,0.,24.0,0.,24.0,2.,24.0,0.,24.0
1979-07-03 21:54:11.140 ,6,0,0.,24.0,0.,24.0,2.,24.0,0.,24.0
1979-07-03 21:54:35.140 ,7,0,9.,24.0,0.,24.0,2.,24.0,0.,24.0
1979-07-03 21:54:59.140 ,7,0,30.,24.0,0.,24.0,3.,24.0,0.,24.0
1979-07-03 21:55:23.140 ,5,1,16.,24.0,0.,24.0,1.,24.0,0.,24.0
1979-07-03 21:55:47.140 ,1,1,0.,24.0,0.,24.0,1.,24.0,0.,24.0
1979-07-03 21:56:11.140 ,2,1,0.,24.0,0.,24.0,0.,24.0,0.,24.0
1979-07-03 21:56:35.140 ,6,1,0.,24.0,0.,24.0,0.,24.0,0.,24.0
1979-07-03 21:56:59.140 ,5,1,18.,24.0,0.,24.0,2.,24.0,0.,24.0
1979-07-03 21:57:23.140 ,1,1,1.,24.0,0.,24.0,2.,24.0,0.,24.0
1979-07-03 21:57:47.140 ,2,1,0.,24.0,0.,24.0,0.,24.0,0.,24.0
1979-07-03 21:58:11.140 ,6,1,0.,24.0,0.,24.0,2.,24.0,0.,24.0
1979-07-03 21:58:35.140 ,5,1,20.,24.0,0.,24.0,5.,24.0,0.,24.0
1979-07-03 21:58:59.140 ,1,1,0.,24.0,0.,24.0,0.,24.0,0.,24.0
1979-07-03 21:59:23.140 ,2,1,0.,24.0,0.,24.0,1.,24.0,0.,24.0
1979-07-03 21:59:47.140 ,6,1,0.,24.0,0.,24.0,0.,24.0,0.,24.0
1979-07-03 22:00:11.140 ,5,1,13.,24.0,0.,24.0,2.,24.0,0.,24.0
1979-07-03 22:00:35.140 ,1,1,0.,24.0,0.,24.0,1.,24.0,0.,24.0
1979-07-03 22:00:59.140 ,2,1,1.,24.0,0.,24.0,0.,24.0,0.,24.0
1979-07-03 22:01:23.140 ,6,1,0.,24.0,0.,24.0,2.,24.0,0.,24.0
1979-07-03 22:01:47.140 ,5,1,15.,24.0,0.,24.0,1.,24.0,0.,24.0
1979-07-03 22:02:11.140 ,1,1,0.,24.0,0.,24.0,0.,24.0,0.,24.0
1979-07-03 22:02:35.140 ,2,1,0.,24.0,0.,24.0,0.,24.0,0.,24.0
1979-07-03 22:02:59.140 ,6,1,0.,24.0,0.,24.0,1.,24.0,0.,24.0
1979-07-03 22:03:23.140 ,5,1,15.,24.0,0.,24.0,1.,24.0,0.,24.0
1979-07-03 22:03:47.140 ,1,1,1.,24.0,0.,24.0,1.,24.0,0.,24.0
1979-07-03 22:04:11.140 ,2,1,1.,24.0,0.,24.0,2.,24.0,0.,24.0
1979-07-03 22:04:35.140 ,6,1,1.,24.0,0.,24.0,0.,24.0,0.,24.0
1979-07-03 22:04:59.140 ,5,1,18.,24.0,0.,24.0,1.,24.0,0.,24.0
1979-07-03 22:05:23.140 ,1,1,1.,24.0,0.,24.0,1.,24.0,0.,24.0
1979-07-03 22:05:47.140 ,0,0,0.,24.0,0.,24.0,1.,24.0,0.,24.0
1979-07-03 22:06:11.140 ,0,0,0.,24.0,0.,24.0,2.,24.0,0.,24.0
1979-07-03 22:06:35.140 ,5,1,16.,24.0,0.,24.0,0.,24.0,0.,24.0
1979-07-03 22:06:59.140 ,5,0,0.,24.0,0.,24.0,2.,24.0,0.,24.0
1979-07-03 22:07:23.140 ,4,1,0.,24.0,1.,24.0,1.,24.0,0.,24.0
1979-07-03 22:07:47.140 ,4,0,0.,24.0,0.,24.0,2.,24.0,0.,24.0
1979-07-03 22:08:11.140 ,3,1,0.,24.0,0.,24.0,0.,24.0,0.,24.0
1979-07-03 22:08:35.140 ,3,0,0.,24.0,0.,24.0,1.,24.0,0.,24.0
1979-07-03 22:08:59.140 ,2,1,0.,24.0,0.,24.0,1.,24.0,0.,24.0
1979-07-03 22:09:23.140 ,2,0,0.,24.0,0.,24.0,1.,24.0,0.,24.0
1979-07-03 22:09:47.140 ,1,1,0.,24.0,0.,24.0,0.,24.0,0.,24.0
1979-07-03 22:10:11.140 ,1,0,0.,24.0,0.,24.0,0.,24.0,0.,24.0
1979-07-03 22:10:35.140 ,0,1,0.,24.0,0.,24.0,2.,24.0,0.,24.0
1979-07-03 22:10:59.140 ,0,0,0.,24.0,0.,24.0,2.,24.0,0.,24.0
1979-07-03 22:11:23.140 ,0,1,0.,24.0,1.,24.0,2.,24.0,0.,24.0
1979-07-03 22:11:47.140 ,0,0,0.,24.0,0.,24.0,1.,24.0,0.,24.0
1979-07-03 22:12:11.140 ,1,1,0.,24.0,0.,24.0,2.,24.0,0.,24.0
1979-07-03 22:12:35.140 ,1,0,0.,24.0,0.,24.0,4.,24.0,0.,24.0
1979-07-03 22:12:59.140 ,2,1,1.,24.0,0.,24.0,1.,24.0,0.,24.0
1979-07-03 22:13:23.140 ,0,0,0.,24.0,0.,24.0,1.,24.0,0.,24.0
1979-07-03 22:13:47.140 ,3,1,0.,24.0,0.,24.0,1.,24.0,0.,24.0
1979-07-03 22:14:11.140 ,3,0,0.,24.0,0.,24.0,2.,24.0,0.,24.0
1979-07-03 22:14:35.140 ,4,1,0.,24.0,0.,24.0,0.,24.0,0.,24.0
1979-07-03 22:14:59.140 ,4,0,0.,24.0,0.,24.0,2.,24.0,0.,24.0
1979-07-03 22:15:23.140 ,5,1,0.,24.0,0.,24.0,0.,24.0,0.,24.0
1979-07-03 22:15:47.140 ,5,0,0.,24.0,0.,24.0,3.,24.0,0.,24.0
1979-07-03 22:16:11.140 ,6,1,1.,24.0,0.,24.0,1.,24.0,0.,24.0
1979-07-03 22:16:35.140 ,6,0,0.,24.0,0.,24.0,3.,24.0,0.,24.0
1979-07-03 22:16:59.140 ,7,1,5.,24.0,0.,24.0,1.,24.0,0.,24.0
1979-07-03 22:17:23.140 ,7,0,29.,24.0,0.,24.0,1.,24.0,0.,24.0
1979-07-03 22:17:47.140 ,7,1,23.,24.0,0.,24.0,2.,24.0,0.,24.0
1979-07-03 22:18:11.140 ,7,0,41.,24.0,0.,24.0,0.,24.0,0.,24.0
1979-07-03 22:18:35.140 ,6,1,17.,24.0,0.,24.0,0.,24.0,0.,24.0
1979-07-03 22:18:59.140 ,6,0,0.,24.0,0.,24.0,1.,24.0,0.,24.0
1979-07-03 22:19:23.140 ,5,1,0.,24.0,0.,24.0,2.,24.0,0.,24.0
1979-07-03 22:19:47.140 ,5,0,0.,24.0,0.,24.0,2.,24.0,0.,24.0
1979-07-03 22:20:11.140 ,4,1,1.,24.0,0.,24.0,1.,24.0,0.,24.0
1979-07-03 22:20:35.140 ,4,0,0.,24.0,0.,24.0,4.,24.0,0.,24.0
1979-07-03 22:20:59.140 ,3,1,0.,24.0,0.,24.0,1.,24.0,0.,24.0
1979-07-03 22:21:23.140 ,3,0,0.,24.0,0.,24.0,2.,24.0,0.,24.0
1979-07-03 22:21:47.140 ,2,1,0.,24.0,0.,24.0,1.,24.0,0.,24.0
1979-07-03 22:22:11.140 ,2,0,2.,24.0,0.,24.0,1.,24.0,0.,24.0
1979-07-03 22:22:35.140 ,1,1,0.,24.0,0.,24.0,2.,24.0,0.,24.0
1979-07-03 22:22:59.140 ,1,0,0.,24.0,0.,24.0,1.,24.0,0.,24.0
1979-07-03 22:23:23.140 ,0,1,0.,24.0,0.,24.0,1.,24.0,0.,24.0
1979-07-03 22:23:47.140 ,0,0,0.,24.0,1.,24.0,3.,24.0,0.,24.0
1979-07-03 22:24:11.140 ,0,1,0.,24.0,0.,24.0,2.,24.0,0.,24.0
1979-07-03 22:24:35.140 ,0,0,0.,24.0,0.,24.0,0.,24.0,0.,24.0
1979-07-03 22:24:59.140 ,1,1,0.,24.0,0.,24.0,2.,24.0,0.,24.0
1979-07-03 22:25:23.140 ,1,0,0.,24.0,1.,24.0,2.,24.0,0.,24.0
1979-07-03 22:25:47.140 ,2,1,0.,24.0,0.,24.0,2.,24.0,0.,24.0
1979-07-03 22:26:11.140 ,2,0,0.,24.0,0.,24.0,1.,24.0,0.,24.0
1979-07-03 22:26:35.140 ,3,1,0.,24.0,0.,24.0,3.,24.0,0.,24.0
1979-07-03 22:26:59.140 ,3,0,0.,24.0,0.,24.0,0.,24.0,0.,24.0
1979-07-03 22:27:23.140 ,4,1,0.,24.0,0.,24.0,0.,24.0,0.,24.0
1979-07-03 22:27:47.140 ,4,0,1.,24.0,0.,24.0,1.,24.0,0.,24.0
1979-07-03 22:28:11.140 ,5,1,2.,24.0,0.,24.0,2.,24.0,0.,24.0
1979-07-03 22:28:35.140 ,5,0,0.,24.0,0.,24.0,1.,24.0,0.,24.0
1979-07-03 22:28:59.140 ,6,1,1.,24.0,1.,24.0,2.,24.0,0.,24.0
1979-07-03 22:29:23.140 ,6,0,0.,24.0,0.,24.0,1.,24.0,0.,24.0
1979-07-03 22:29:47.140 ,7,1,12.,24.0,0.,24.0,0.,24.0,0.,24.0
1979-07-03 22:30:11.140 ,7,0,22.,24.0,0.,24.0,1.,24.0,0.,24.0
1979-07-03 22:30:35.140 ,7,1,29.,24.0,0.,24.0,0.,24.0,0.,24.0
1979-07-03 22:30:59.140 ,7,0,33.,24.0,0.,24.0,1.,24.0,0.,24.0
1979-07-03 22:31:23.140 ,6,1,23.,24.0,0.,24.0,2.,24.0,0.,24.0
1979-07-03 22:31:47.140 ,6,0,0.,24.0,0.,24.0,0.,24.0,0.,24.0
1979-07-03 22:32:11.140 ,5,1,0.,24.0,0.,24.0,3.,24.0,0.,24.0
1979-07-03 22:32:35.140 ,5,0,1.,24.0,0.,24.0,5.,24.0,0.,24.0
1979-07-03 22:32:59.140 ,4,1,1.,24.0,0.,24.0,1.,24.0,0.,24.0
1979-07-03 22:33:23.140 ,4,0,0.,24.0,0.,24.0,2.,24.0,0.,24.0
1979-07-03 22:33:47.140 ,3,1,0.,24.0,0.,24.0,1.,24.0,0.,24.0
1979-07-03 22:34:11.140 ,3,0,0.,24.0,0.,24.0,1.,24.0,0.,24.0
1979-07-03 22:34:35.140 ,2,1,1.,24.0,0.,24.0,0.,24.0,0.,24.0
1979-07-03 22:34:59.140 ,2,0,0.,24.0,0.,24.0,1.,24.0,0.,24.0
1979-07-03 22:35:23.140 ,1,1,0.,24.0,0.,24.0,1.,24.0,0.,24.0
1979-07-03 22:35:47.140 ,1,0,1.,24.0,0.,24.0,2.,24.0,0.,24.0
1979-07-03 22:36:11.140 ,0,1,0.,24.0,0.,24.0,2.,24.0,0.,24.0
1979-07-03 22:36:35.140 ,0,0,1.,24.0,0.,24.0,1.,24.0,0.,24.0
1979-07-03 22:36:59.140 ,0,1,0.,24.0,0.,24.0,2.,24.0,0.,24.0
1979-07-03 22:37:23.140 ,0,0,0.,24.0,0.,24.0,2.,24.0,0.,24.0
1979-07-03 22:37:47.140 ,1,1,0.,24.0,1.,24.0,1.,24.0,0.,24.0
1979-07-03 22:38:11.140 ,1,0,0.,24.0,0.,24.0,2.,24.0,0.,24.0
1979-07-03 22:38:35.140 ,2,1,0.,24.0,0.,24.0,1.,24.0,0.,24.0
1979-07-03 22:38:59.140 ,2,0,0.,24.0,0.,24.0,3.,24.0,0.,24.0
1979-07-03 22:39:23.140 ,3,1,0.,24.0,0.,24.0,2.,24.0,0.,24.0
1979-07-03 22:39:47.140 ,3,0,0.,24.0,0.,24.0,1.,24.0,0.,24.0
1979-07-03 22:40:11.140 ,4,1,0.,24.0,0.,24.0,2.,24.0,0.,24.0
1979-07-03 22:40:35.140 ,4,0,0.,24.0,1.,24.0,3.,24.0,0.,24.0
1979-07-03 22:40:59.140 ,5,1,0.,24.0,0.,24.0,0.,24.0,0.,24.0
1979-07-03 22:41:23.140 ,0,0,0.,24.0,0.,24.0,4.,24.0,0.,24.0
1979-07-03 22:41:47.140 ,6,1,0.,24.0,0.,24.0,1.,24.0,0.,24.0
1979-07-03 22:42:11.140 ,6,0,1.,24.0,0.,24.0,2.,24.0,0.,24.0
1979-07-03 22:42:35.140 ,7,0,6.,24.0,0.,24.0,2.,24.0,0.,24.0
1979-07-03 22:42:59.140 ,7,0,26.,24.0,0.,24.0,1.,24.0,0.,24.0
1979-07-03 22:43:23.140 ,5,1,19.,24.0,0.,24.0,0.,24.0,0.,24.0
1979-07-03 22:43:47.140 ,1,1,0.,24.0,0.,24.0,0.,24.0,0.,24.0
1979-07-03 22:44:11.140 ,2,1,1.,24.0,0.,24.0,1.,24.0,0.,24.0
1979-07-03 22:44:35.140 ,6,1,0.,24.0,0.,24.0,0.,24.0,0.,24.0
1979-07-03 22:44:59.140 ,5,1,16.,24.0,0.,24.0,4.,24.0,0.,24.0
1979-07-03 22:45:23.140 ,1,1,2.,24.0,0.,24.0,1.,24.0,0.,24.0
1979-07-03 22:45:47.140 ,2,1,0.,24.0,0.,24.0,2.,24.0,0.,24.0
1979-07-03 22:46:11.140 ,6,1,1.,24.0,0.,24.0,1.,24.0,0.,24.0
1979-07-03 22:46:35.140 ,5,1,10.,24.0,0.,24.0,1.,24.0,0.,24.0
1979-07-03 22:46:59.140 ,1,1,0.,24.0,0.,24.0,3.,24.0,0.,24.0
1979-07-03 22:47:23.140 ,2,1,0.,24.0,0.,24.0,0.,24.0,0.,24.0
1979-07-03 22:47:47.140 ,6,1,0.,24.0,0.,24.0,2.,24.0,0.,24.0
1979-07-03 22:48:11.140 ,5,1,18.,24.0,0.,24.0,1.,24.0,0.,24.0
1979-07-03 22:48:35.140 ,1,1,1.,24.0,0.,24.0,1.,24.0,0.,24.0
1979-07-03 22:48:59.140 ,2,1,0.,24.0,0.,24.0,2.,24.0,0.,24.0
1979-07-03 22:49:23.140 ,6,1,0.,24.0,0.,24.0,2.,24.0,0.,24.0
1979-07-03 22:49:47.140 ,5,1,4.,24.0,0.,24.0,1.,24.0,0.,24.0
1979-07-03 22:50:11.140 ,1,1,1.,24.0,0.,24.0,4.,24.0,0.,24.0
1979-07-03 22:50:35.140 ,2,1,0.,24.0,0.,24.0,1.,24.0,0.,24.0
1979-07-03 22:50:59.140 ,6,1,0.,24.0,0.,24.0,2.,24.0,0.,24.0
1979-07-03 22:51:23.140 ,5,1,10.,24.0,0.,24.0,0.,24.0,0.,24.0
1979-07-03 22:51:47.140 ,1,1,0.,24.0,0.,24.0,2.,24.0,0.,24.0
1979-07-03 22:52:11.140 ,2,1,1.,24.0,0.,24.0,2.,24.0,0.,24.0
1979-07-03 22:52:35.140 ,6,1,0.,24.0,0.,24.0,2.,24.0,0.,24.0
1979-07-03 22:52:59.140 ,5,1,19.,24.0,0.,24.0,5.,24.0,0.,24.0
1979-07-03 22:53:23.140 ,1,1,0.,24.0,0.,24.0,3.,24.0,0.,24.0
1979-07-03 22:53:47.140 ,0,0,0.,24.0,0.,24.0,3.,24.0,0.,24.0
1979-07-03 22:54:11.140 ,0,0,1.,24.0,0.,24.0,4.,24.0,0.,24.0
1979-07-03 22:54:35.140 ,5,1,12.,24.0,0.,24.0,0.,24.0,0.,24.0
1979-07-03 22:54:59.140 ,5,0,0.,24.0,0.,24.0,0.,24.0,0.,24.0
1979-07-03 22:55:23.140 ,4,1,1.,24.0,0.,24.0,1.,24.0,0.,24.0
1979-07-03 22:55:47.140 ,4,0,2.,24.0,0.,24.0,1.,24.0,0.,24.0
1979-07-03 22:56:11.140 ,3,1,0.,24.0,1.,24.0,2.,24.0,0.,24.0
1979-07-03 22:56:35.140 ,3,0,0.,24.0,0.,24.0,0.,24.0,0.,24.0
1979-07-03 22:56:59.140 ,2,1,0.,24.0,0.,24.0,0.,24.0,0.,24.0
1979-07-03 22:57:23.140 ,2,0,0.,24.0,0.,24.0,1.,24.0,0.,24.0
1979-07-03 22:57:47.140 ,1,1,0.,24.0,0.,24.0,1.,24.0,0.,24.0
1979-07-03 22:58:11.140 ,1,0,1.,24.0,0.,24.0,0.,24.0,0.,24.0
1979-07-03 22:58:35.140 ,0,1,0.,24.0,1.,24.0,3.,24.0,0.,24.0
1979-07-03 22:58:59.140 ,0,0,1.,24.0,0.,24.0,2.,24.0,0.,24.0
1979-07-03 22:59:23.140 ,0,1,0.,24.0,0.,24.0,0.,24.0,0.,24.0
1979-07-03 22:59:47.140 ,0,0,0.,24.0,0.,24.0,2.,24.0,0.,24.0
1979-07-03 23:00:11.140 ,1,1,1.,24.0,0.,24.0,2.,24.0,0.,24.0
1979-07-03 23:00:35.140 ,1,0,0.,24.0,0.,24.0,2.,24.0,0.,24.0
1979-07-03 23:00:59.140 ,2,1,0.,24.0,0.,24.0,2.,24.0,0.,24.0
1979-07-03 23:01:23.140 ,2,0,0.,24.0,0.,24.0,3.,24.0,0.,24.0
1979-07-03 23:01:47.140 ,3,1,0.,24.0,0.,24.0,0.,24.0,0.,24.0
1979-07-03 23:02:11.140 ,3,0,0.,24.0,0.,24.0,0.,24.0,0.,24.0
1979-07-03 23:02:35.140 ,4,1,0.,24.0,0.,24.0,1.,24.0,0.,24.0
1979-07-03 23:02:59.140 ,4,0,0.,24.0,0.,24.0,0.,24.0,0.,24.0
1979-07-03 23:03:23.140 ,5,1,0.,24.0,0.,24.0,0.,24.0,0.,24.0
1979-07-03 23:03:47.140 ,5,0,0.,24.0,0.,24.0,1.,24.0,0.,24.0
1979-07-03 23:04:11.140 ,6,1,0.,24.0,0.,24.0,2.,24.0,0.,24.0
1979-07-03 23:04:35.140 ,6,0,0.,24.0,1.,24.0,0.,24.0,0.,24.0
1979-07-03 23:04:59.140 ,7,1,3.,24.0,0.,24.0,1.,24.0,0.,24.0
1979-07-03 23:05:23.140 ,7,0,36.,24.0,0.,24.0,2.,24.0,0.,24.0
1979-07-03 23:05:47.140 ,7,1,34.,24.0,0.,24.0,1.,24.0,0.,24.0
1979-07-03 23:06:11.140 ,7,0,33.,24.0,0.,24.0,0.,24.0,0.,24.0
1979-07-03 23:06:35.140 ,6,1,28.,24.0,0.,24.0,0.,24.0,0.,24.0
1979-07-03 23:06:59.140 ,6,0,1.,24.0,0.,24.0,1.,24.0,0.,24.0
1979-07-03 23:09:47.140 ,0,0,0.,24.0,0.,24.0,1.,24.0,0.,24.0
1979-07-03 23:10:11.140 ,0,0,0.,24.0,0.,24.0,3.,24.0,0.,24.0
1979-07-03 23:10:35.140 ,1,1,1.,24.0,1.,24.0,1.,24.0,0.,24.0
1979-07-03 23:10:59.140 ,1,0,0.,24.0,0.,24.0,0.,24.0,0.,24.0
1979-07-03 23:11:23.140 ,0,1,0.,24.0,0.,24.0,2.,24.0,0.,24.0
1979-07-03 23:11:47.140 ,0,0,0.,24.0,0.,24.0,0.,24.0,0.,24.0
1979-07-03 23:12:11.140 ,0,1,0.,24.0,0.,24.0,1.,24.0,0.,24.0
1979-07-03 23:12:35.140 ,0,0,0.,24.0,0.,24.0,5.,24.0,0.,24.0
1979-07-03 23:12:59.140 ,1,1,0.,24.0,0.,24.0,2.,24.0,0.,24.0
1979-07-03 23:13:23.140 ,1,0,0.,24.0,0.,24.0,1.,24.0,0.,24.0
1979-07-03 23:13:47.140 ,2,1,0.,24.0,1.,24.0,0.,24.0,0.,24.0
1979-07-03 23:14:11.140 ,2,0,0.,24.0,0.,24.0,1.,24.0,0.,24.0
1979-07-03 23:14:35.140 ,3,1,0.,24.0,0.,24.0,1.,24.0,0.,24.0
1979-07-03 23:14:59.140 ,3,0,0.,24.0,0.,24.0,2.,24.0,0.,24.0
1979-07-03 23:15:23.140 ,4,1,0.,24.0,1.,24.0,0.,24.0,0.,24.0
1979-07-03 23:15:47.140 ,4,0,0.,24.0,0.,24.0,2.,24.0,0.,24.0
1979-07-03 23:16:11.140 ,5,1,0.,24.0,0.,24.0,1.,24.0,0.,24.0
1979-07-03 23:16:35.140 ,5,0,2.,24.0,0.,24.0,1.,24.0,0.,24.0
1979-07-03 23:16:59.140 ,6,1,0.,24.0,0.,24.0,2.,24.0,0.,24.0
1979-07-03 23:17:23.140 ,6,0,0.,24.0,1.,24.0,0.,24.0,0.,24.0
1979-07-03 23:17:47.140 ,7,1,8.,24.0,0.,24.0,1.,24.0,0.,24.0
1979-07-03 23:18:11.140 ,7,0,38.,24.0,0.,24.0,1.,24.0,0.,24.0
1979-07-03 23:18:35.140 ,7,1,49.,24.0,0.,24.0,2.,24.0,0.,24.0
1979-07-03 23:18:59.140 ,7,0,22.,24.0,0.,24.0,1.,24.0,0.,24.0
1979-07-03 23:19:23.140 ,6,1,21.,24.0,1.,24.0,1.,24.0,0.,24.0
1979-07-03 23:19:47.140 ,6,0,0.,24.0,0.,24.0,2.,24.0,0.,24.0
1979-07-03 23:20:11.140 ,5,1,0.,24.0,0.,24.0,2.,24.0,0.,24.0
1979-07-03 23:20:35.140 ,5,0,1.,24.0,0.,24.0,1.,24.0,0.,24.0
1979-07-03 23:20:59.140 ,4,1,2.,24.0,0.,24.0,1.,24.0,0.,24.0
1979-07-03 23:21:23.140 ,4,0,0.,24.0,0.,24.0,2.,24.0,0.,24.0
1979-07-03 23:21:47.140 ,3,1,0.,24.0,0.,24.0,3.,24.0,0.,24.0
1979-07-03 23:22:11.140 ,3,0,0.,24.0,0.,24.0,0.,24.0,0.,24.0
1979-07-03 23:22:35.140 ,2,1,0.,24.0,0.,24.0,0.,24.0,0.,24.0
1979-07-03 23:22:59.140 ,2,0,0.,24.0,0.,24.0,1.,24.0,0.,24.0
1979-07-03 23:23:23.140 ,1,1,0.,24.0,0.,24.0,0.,24.0,0.,24.0
1979-07-03 23:23:47.140 ,1,0,0.,24.0,0.,24.0,2.,24.0,0.,24.0
1979-07-03 23:24:11.140 ,0,1,1.,24.0,0.,24.0,1.,24.0,0.,24.0
1979-07-03 23:24:35.140 ,0,0,0.,24.0,0.,24.0,2.,24.0,0.,24.0
1979-07-03 23:24:59.140 ,0,1,1.,24.0,0.,24.0,0.,24.0,0.,24.0
1979-07-03 23:25:23.140 ,0,0,0.,24.0,0.,24.0,0.,24.0,0.,24.0
1979-07-03 23:25:47.140 ,1,1,0.,24.0,0.,24.0,0.,24.0,0.,24.0
1979-07-03 23:26:11.140 ,1,0,1.,24.0,0.,24.0,1.,24.0,0.,24.0
1979-07-03 23:26:35.140 ,2,1,0.,24.0,0.,24.0,1.,24.0,0.,24.0
1979-07-03 23:26:59.140 ,2,0,0.,24.0,0.,24.0,0.,24.0,0.,24.0
1979-07-03 23:27:23.140 ,3,1,0.,24.0,0.,24.0,0.,24.0,0.,24.0
1979-07-03 23:27:47.140 ,3,0,0.,24.0,0.,24.0,0.,24.0,0.,24.0
1979-07-03 23:28:11.140 ,4,1,1.,24.0,0.,24.0,2.,24.0,0.,24.0
1979-07-03 23:28:35.140 ,4,0,0.,24.0,0.,24.0,2.,24.0,0.,24.0
1979-07-03 23:28:59.140 ,5,1,0.,24.0,0.,24.0,1.,24.0,0.,24.0
1979-07-03 23:29:23.140 ,5,0,0.,24.0,0.,24.0,0.,24.0,0.,24.0
1979-07-03 23:29:47.140 ,6,1,0.,24.0,0.,24.0,1.,24.0,0.,24.0
1979-07-03 23:30:11.140 ,6,0,0.,24.0,0.,24.0,0.,24.0,0.,24.0
1979-07-03 23:30:35.140 ,7,0,4.,24.0,0.,24.0,0.,24.0,0.,24.0
1979-07-03 23:30:59.140 ,7,0,30.,24.0,0.,24.0,2.,24.0,0.,24.0
1979-07-03 23:31:23.140 ,5,1,17.,24.0,0.,24.0,2.,24.0,0.,24.0
1979-07-03 23:31:47.140 ,1,1,0.,24.0,0.,24.0,3.,24.0,0.,24.0
1979-07-03 23:32:11.140 ,2,1,0.,24.0,0.,24.0,2.,24.0,0.,24.0
1979-07-03 23:32:35.140 ,6,1,0.,24.0,0.,24.0,1.,24.0,0.,24.0
1979-07-03 23:32:59.140 ,5,1,13.,24.0,0.,24.0,1.,24.0,0.,24.0
1979-07-03 23:33:23.140 ,1,1,0.,24.0,0.,24.0,2.,24.0,0.,24.0
1979-07-03 23:33:47.140 ,2,1,0.,24.0,0.,24.0,1.,24.0,0.,24.0
1979-07-03 23:34:11.140 ,6,1,0.,24.0,1.,24.0,3.,24.0,0.,24.0
1979-07-03 23:34:35.140 ,5,1,15.,24.0,0.,24.0,4.,24.0,0.,24.0
1979-07-03 23:34:59.140 ,1,1,0.,24.0,0.,24.0,1.,24.0,0.,24.0
1979-07-03 23:35:23.140 ,2,1,0.,24.0,0.,24.0,0.,24.0,0.,24.0
1979-07-03 23:35:47.140 ,6,1,0.,24.0,0.,24.0,0.,24.0,0.,24.0
1979-07-03 23:36:11.140 ,5,1,12.,24.0,0.,24.0,2.,24.0,0.,24.0
1979-07-03 23:36:35.140 ,1,1,0.,24.0,0.,24.0,2.,24.0,0.,24.0
1979-07-03 23:36:59.140 ,2,1,1.,24.0,0.,24.0,1.,24.0,0.,24.0
1979-07-03 23:37:23.140 ,6,1,0.,24.0,2.,24.0,0.,24.0,0.,24.0
1979-07-03 23:37:47.140 ,5,1,18.,24.0,0.,24.0,0.,24.0,0.,24.0
1979-07-03 23:38:11.140 ,1,1,0.,24.0,0.,24.0,1.,24.0,0.,24.0
1979-07-03 23:38:35.130 ,2,1,0.,24.0,0.,24.0,1.,24.0,0.,24.0
1979-07-03 23:38:59.130 ,6,1,0.,24.0,0.,24.0,1.,24.0,0.,24.0
1979-07-03 23:39:23.130 ,5,1,12.,24.0,0.,24.0,0.,24.0,0.,24.0
1979-07-03 23:39:47.130 ,1,1,0.,24.0,0.,24.0,1.,24.0,0.,24.0
1979-07-03 23:40:11.130 ,2,1,0.,24.0,0.,24.0,0.,24.0,0.,24.0
1979-07-03 23:40:35.130 ,6,1,0.,24.0,0.,24.0,2.,24.0,0.,24.0
1979-07-03 23:40:59.130 ,5,1,14.,24.0,1.,24.0,2.,24.0,0.,24.0
1979-07-03 23:41:23.130 ,1,1,1.,24.0,0.,24.0,1.,24.0,0.,24.0